Simultaneous Nadir Overpasses (SNOs) Predictions

Prediction of SNOs between LANDSAT-8 and METOP-B Satellite Orbit:

Table of predicted SNOs for the next 14.0 days since TLE Epoch: 10/15/2017
Index Date (LANDSAT-8) Time (LANDSAT-8) Lat,Lon (LANDSAT-8) SZA (LANDSAT-8 ) Date (METOP-B) Time (METOP-B) Lat,Lon (METOP-B) SZA (METOP-B ) Distance(km) Time Diff (sec)
1 10/18/2017 03:05:58 -81.13, -6.51 86.85 10/18/2017 03:05:34 -81.13, -6.45 86.85 1.06 24
2 10/18/2017 03:55:24 81.13, 161.22 93.18 10/18/2017 03:56:14 81.13, 161.13 93.20 1.53 50
3 10/20/2017 22:40:13 -81.11, 59.76 85.85 10/20/2017 22:39:56 -81.12, 59.82 85.85 1.25 17
4 10/20/2017 23:29:38 81.14,-132.17 94.23 10/20/2017 23:30:35 81.14,-132.21 94.25 0.61 57
5 10/23/2017 18:14:28 -81.12, 126.35 84.83 10/23/2017 18:14:18 -81.13, 126.44 84.83 1.49 10
6 10/23/2017 19:03:53 81.15, -65.60 95.25 10/23/2017 19:04:57 81.15, -65.58 95.28 0.49 64
7 10/26/2017 13:48:43 -81.13,-167.10 83.84 10/26/2017 13:48:40 -81.13,-166.97 83.83 2.09 3
8 10/26/2017 14:38:08 81.16, 0.93 96.23 10/26/2017 14:39:19 81.16, 1.03 96.27 1.74 71
9 10/29/2017 08:33:31 81.11, 91.38 97.04 10/29/2017 08:32:23 81.10, 91.21 96.99 3.03 68




NCC Satellite Simultaneous Nadir Overpasses (SNOs) Prediction Service
